Dewpoint
19 22 23 30 32 32 31 31 30 30 30 32 31 32 30 28 28 32 33 34 33 32 31 28 30 31 32 33 32 30 30 31
21 23 25 32 32 30 28 29 30 29 30 31 30 30 29 27 28 32 32 32 31 32 31 28 31 31 32 33 31 31 30 31
21 23 26 32 32 31 27 29 30 30 30 32 32 30 29 27 27 32 30 31 31 32 30 30 31 32 32 33 32 31 31 34
20 22 26 33 32 31 28 28 30 31 31 32 31 30 29 27 27 31 30 30 30 31 29 30 31 32 33 32 32 33 32 34
20 22 31 33 32 31 26 28 29 32 32 31 30 28 27 27 28 30 30 30 31 31 29 30 31 33 32 33 34 34 35 32
20 26 30 32 31 30 26 29 30 31 32 31 30 28 28 29 28 29 29 30 30 28 28 30 32 34 32 34 34 35 35 34
24 26 30 32 32 28 25 27 30 31 31 30 29 27 27 27 28 29 29 30 29 26 27 30 34 31 32 34 35 33 34 34
23 24 32 32 30 27 26 27 29 31 30 30 28 28 28 27 29 29 29 29 28 26 28 30 31 30 30 32 33 33 33 32
23 29 32 31 30 28 27 28 29 30 31 30 28 28 29 29 30 29 29 29 28 26 28 31 29 29 30 31 33 33 32 31
30 32 32 31 30 29 28 29 30 30 30 30 28 29 29 28 29 30 28 29 26 27 28 29 27 28 29 31 33 33 30 30
31 33 32 31 30 30 29 30 30 30 31 29 28 28 29 28 28 29 28 28 27 27 27 28 26 27 28 31 33 30 29 29
33 32 31 31 30 30 29 29 28 30 30 29 28 28 28 28 28 28 28 28 26 26 26 26 26 27 29 30 30 29 29 28
33 31 30 29 30 29 29 28 28 30 29 28 28 27 27 27 27 26 28 28 27 26 27 25 25 27 29 30 28 29 29 27
32 30 30 26 27 28 27 26 27 28 28 27 27 26 26 26 26 26 27 27 28 27 27 21 25 26 28 30 28 28 27 26
31 30 29 26 25 27 27 26 25 26 26 25 25 25 25 26 26 26 26 26 26 24 26 23 22 25 27 29 27 27 26 25
31 29 28 26 24 26 26 25 25 24 23 24 23 25 25 26 24 25 25 26 25 22 26 23 22 23 26 28 26 26 25 23
30 29 27 25 24 26 26 24 23 22 22 22 23 24 24 25 23 24 24 24 24 23 24 23 22 22 26 27 28 26 25 23
30 29 28 26 25 26 25 24 21 21 21 21 23 23 23 24 23 24 24 23 23 24 24 22 22 23 25 25 26 25 25 24
29 29 26 24 26 26 25 22 21 21 21 21 22 23 23 23 24 23 23 23 23 23 23 23 21 23 25 24 24 25 24 24
Wind_Speed
14 15 12 13 14 14 14 13 14 15 15 12 14 14 16 17 16 15 16 15 15 13 14 19 17 17 18 18 20 19 18 20
18 15 14 13 14 15 13 13 12 14 11 10 14 14 16 16 16 15 16 15 15 14 14 18 17 17 18 19 18 20 21 22
16 16 12 15 15 14 13 12 13 11 9 7 7 12 14 15 15 13 17 14 16 15 18 17 18 18 19 20 20 18 18 19
17 16 14 18 15 13 12 11 12 11 12 10 8 8 10 13 15 10 15 15 16 16 19 18 19 18 17 20 19 20 18 19
19 17 19 16 14 13 9 14 12 13 13 13 15 15 13 12 13 12 14 15 14 17 20 19 20 17 19 19 18 19 17 18
20 22 20 18 16 12 12 16 14 14 14 14 15 16 12 9 13 15 14 12 14 20 19 19 19 18 20 19 20 20 18 13
24 20 20 19 16 16 15 15 13 15 15 15 17 16 14 15 15 14 12 11 14 20 19 19 17 20 20 20 18 18 19 17
23 18 22 19 18 16 13 14 14 14 15 16 16 14 13 14 13 13 14 13 14 19 19 21 19 21 21 20 18 18 17 18
19 22 22 19 18 16 11 13 13 14 14 16 15 13 11 12 11 12 13 12 13 17 19 19 21 21 21 20 16 16 17 18
25 24 22 20 18 14 10 12 12 12 14 15 14 13 13 13 12 10 11 12 14 16 18 19 23 20 21 20 16 18 18 18
23 23 22 19 17 13 11 12 11 12 15 14 12 12 12 12 12 10 12 11 12 15 18 18 21 21 21 21 16 19 20 19
23 22 20 20 16 13 11 11 11 14 15 14 12 11 12 12 13 14 8 10 11 13 14 18 20 20 22 20 19 20 21 22
23 24 21 18 17 13 12 11 11 15 15 14 11 11 12 13 13 15 13 8 9 10 14 17 18 19 21 20 21 20 21 23
22 21 20 19 16 15 14 11 12 15 15 12 9 10 10 12 12 13 15 14 9 12 16 20 17 20 21 20 19 21 22 23
21 20 20 18 15 16 14 12 13 15 14 10 9 9 10 10 12 12 15 15 16 16 14 19 16 19 20 19 20 20 22 22
20 21 20 19 16 15 15 12 14 15 13 9 9 8 10 11 13 13 14 15 16 16 13 19 20 19 21 20 18 20 21 25
21 21 20 19 17 16 15 13 15 15 11 10 10 11 11 12 13 12 12 14 15 16 15 18 22 20 30 29 16 19 20 24
23 23 20 19 19 19 16 14 15 14 13 11 11 12 12 12 12 13 13 13 14 16 16 17 20 24 31 29 27 19 20 21
22 21 21 21 20 19 18 16 15 14 13 12 11 12 13 11 12 13 14 13 13 16 17 14 19 23 29 27 23 17 19 21
Wind_Direction
125 109 94 97 93 85 77 71 64 51 25 31 14 12 12 19 18 31 44 38 25 16 4 349 346 339 335 333 331 327 322 320
138 131 130 119 95 82 73 74 68 54 28 31 16 18 10 14 13 55 47 35 13 16 359 349 342 337 331 329 327 329 331 333
149 139 146 111 100 86 70 82 76 62 48 33 25 27 10 4 4 61 41 26 14 16 355 347 343 335 331 332 332 333 333 335
147 140 131 117 103 89 71 90 86 70 55 40 30 22 16 2 1 47 37 21 12 12 354 350 342 336 332 337 338 334 326 334
143 144 117 117 110 92 73 91 81 70 58 55 47 33 17 359 4 41 26 16 15 10 354 352 341 335 341 335 335 334 330 336
138 121 122 114 106 90 74 92 77 69 63 61 51 36 12 2 11 37 17 8 15 7 356 348 341 342 340 337 340 350 345 343
119 118 122 112 96 77 74 84 72 68 64 58 52 37 15 17 21 30 11 5 19 7 357 350 345 350 348 343 344 353 358 353
133 134 117 110 93 77 70 77 70 69 64 59 51 33 25 20 32 36 21 10 23 5 358 351 355 354 351 350 353 353 356 355
131 125 118 110 98 85 72 79 76 70 66 61 48 29 30 26 38 47 30 22 27 360 0 355 1 358 354 352 348 353 357 355
120 119 118 110 103 100 88 87 83 74 70 65 45 33 30 30 35 54 42 42 22 5 1 6 3 359 355 352 352 360 0 357
122 120 120 117 114 112 95 95 93 83 77 68 48 35 31 30 29 43 52 56 27 16 10 9 8 0 357 355 1 4 1 1
129 127 123 127 125 119 106 100 93 85 82 68 48 37 30 28 31 24 56 65 36 22 14 20 14 4 0 357 6 5 1 4
132 132 134 132 132 125 109 101 95 96 88 71 52 43 32 30 29 25 25 61 43 27 21 22 19 6 1 3 9 4 9 6
134 137 135 132 133 123 108 97 98 97 89 75 53 50 37 33 25 30 24 30 37 23 39 27 21 8 4 3 12 15 17 7
142 141 139 137 132 124 114 102 98 94 88 77 59 58 42 38 29 35 33 33 42 31 50 29 21 12 9 5 19 19 22 8
147 145 143 134 126 122 115 107 99 94 87 77 64 64 48 44 41 40 37 43 48 35 57 31 21 19 16 10 27 22 25 17
152 150 146 142 140 130 115 108 101 96 90 78 69 64 52 51 41 36 40 46 50 47 58 39 27 22 18 20 30 29 23 21
157 157 153 147 135 126 122 113 103 97 90 76 72 67 57 50 39 39 35 41 52 52 54 48 32 26 23 22 21 27 23 20
154 147 138 130 125 124 122 114 108 101 94 78 71 73 63 47 42 40 37 34 56 52 52 56 39 27 26 24 20 23 21 20